Location: Oshawa
(43.9000°N, 78.8670°W)
Time: 11:24:46
(UTC-05:00)

Courier 1B - All Passes

Search period start: 22 November 2014 00:00
Search period end: 02 December 2014 00:00
Orbit: 963 x 1209 km, 28.3° (Epoch: 21 November)

Date Brightness Start Highest point End Pass type
(mag) Time Alt. Az. Time Alt. Az. Time Alt. Az.
22 Nov - 01:32:15 10° SW 01:36:42 19° S 01:41:03 10° SSE night (unlit)
22 Nov - 20:55:30 10° S 20:57:16 11° SSE 20:59:00 10° SE visible
22 Nov - 22:45:22 10° SW 22:50:14 20° S 22:54:55 10° SE night (unlit)
23 Nov - 00:38:24 10° SW 00:43:15 20° S 00:47:57 10° SE night (unlit)
23 Nov - 02:33:33 10° SW 02:36:06 12° SSW 02:38:37 10° S night (unlit)
23 Nov - 21:52:03 10° SSW 21:56:43 18° SSE 22:01:14 10° SE night (unlit)
23 Nov - 23:44:38 10° SW 23:49:46 22° S 23:54:42 10° SE night (unlit)
24 Nov - 01:39:00 10° SW 01:42:42 15° SSW 01:46:19 10° SSE night (unlit)
24 Nov - 20:58:54 10° SSW 21:03:11 16° SSE 21:07:21 10° SE visible
24 Nov - 22:50:57 10° SW 22:56:16 22° S 23:01:21 10° SE night (unlit)
25 Nov - 00:44:49 10° SW 00:49:16 18° SSW 00:53:34 10° SSE night (unlit)
25 Nov - 20:06:05 10° S 20:09:39 14° SSE 20:13:10 10° SE visible
25 Nov - 21:57:22 10° SW 22:02:43 22° S 22:07:52 10° SE night (unlit)
25 Nov - 23:50:49 10° SW 23:55:48 20° S 00:00:35 10° SE night (unlit)
26 Nov - 01:47:07 10° SW 01:48:37 11° SSW 01:50:05 10° S night (unlit)
26 Nov - 19:13:55 10° S 19:16:08 11° SSE 19:18:19 10° SE visible
26 Nov - 21:03:53 10° SW 21:09:10 21° S 21:14:15 10° SE visible
26 Nov - 22:56:55 10° SW 23:02:17 22° S 23:07:25 10° SE night (unlit)
27 Nov - 00:51:50 10° SW 00:55:12 14° SSW 00:58:29 10° S night (unlit)
27 Nov - 20:10:33 10° SSW 20:15:35 19° SSE 20:20:29 10° SE visible
27 Nov - 22:03:08 10° SW 22:08:44 23° S 22:14:07 10° SE visible
27 Nov - 23:57:24 10° SW 00:01:45 17° SSW 00:05:58 10° SSE night (unlit)
28 Nov - 19:17:26 10° SSW 19:22:01 17° SSE 19:26:30 10° SE visible
28 Nov - 21:09:26 10° SW 21:15:09 23° S 21:20:40 10° SE visible
28 Nov - 23:03:14 10° SW 23:08:16 20° SSW 23:13:06 10° SSE night (unlit)
29 Nov - 18:24:41 10° S 18:28:27 14° SSE 18:32:10 10° SE visible
29 Nov - 20:15:50 10° SW 20:21:33 23° S 20:27:06 10° SE visible
29 Nov - 22:09:14 10° SW 22:14:43 22° S 22:20:01 10° SE visible
30 Nov - 00:04:50 10° SW 00:07:38 13° SSW 00:10:24 10° S night (unlit)
30 Nov - 17:32:41 10° S 17:34:54 11° SSE 17:37:06 10° SE visible
30 Nov - 19:22:24 10° SW 19:27:56 21° S 19:33:22 10° ESE visible
30 Nov - 21:15:21 10° SW 21:21:09 24° S 21:26:45 10° SE visible
30 Nov - 23:10:02 10° SW 23:14:11 16° SSW 23:18:12 10° SSE night (unlit)
01 Dec - 18:29:08 10° SSW 18:34:20 19° SSE 18:39:28 10° ESE visible
01 Dec - 20:21:35 10° SW 20:27:32 24° S 20:33:19 10° SE visible
01 Dec - 22:15:42 10° WSW 22:20:40 19° SSW 22:25:29 10° SSE visible
